Tracking 22124 objects as of 25-Jan-2021
HD Live streaming from Space Station
objects crossing your sky now

STARLINK-1891

Track STARLINK-1891 now!
10-day predictions
STARLINK-1891 is classified as:


NORAD ID: 47174
Int'l Code: 2020-088BE
Perigee: 469.0 km
Apogee: 470.6 km
Inclination: 53.1 °
Period: 93.8 minutes
Semi major axis: 6840 km
RCS: Unknown
Launch date: November 25, 2020
Source: United States (US)
Launch site: AIR FORCE EASTERN TEST RANGE (AFETR)
aabbcc
Your satellite tracking list
Your tracking list is empty




NASA's NSSDC Master Catalog

Two Line Element Set (TLE):
1 47174U 20088BE  21024.91667824 -.01075950  00000-0 -34706-1 0  9993
2 47174  53.0552  56.5548 0001181  70.3196 299.9043 15.34412050 10298
Source of the keplerian elements: AFSPC